Year,Month,Day,Hour,Minute,Value (Times are PST for temperature in C)
2014,03,17,00,00,5.70
2014,03,17,00,01,5.70
2014,03,17,00,02,5.70
2014,03,17,00,03,5.60
2014,03,17,00,04,5.60
2014,03,17,00,05,5.60
2014,03,17,00,06,5.60
2014,03,17,00,07,5.50
2014,03,17,00,08,5.50
2014,03,17,00,09,5.50
2014,03,17,00,10,5.50
2014,03,17,00,11,5.40
2014,03,17,00,12,5.40
2014,03,17,00,13,5.40
2014,03,17,00,14,5.30
2014,03,17,00,15,5.30
2014,03,17,00,16,5.30
2014,03,17,00,17,5.30
2014,03,17,00,18,5.30
2014,03,17,00,19,5.30
2014,03,17,00,20,5.30
2014,03,17,00,21,5.30
2014,03,17,00,22,5.30
2014,03,17,00,23,5.30
2014,03,17,00,24,5.30
2014,03,17,00,25,5.30
2014,03,17,00,26,5.30
2014,03,17,00,27,5.30
2014,03,17,00,28,5.30
2014,03,17,00,29,5.30
2014,03,17,00,30,5.30
2014,03,17,00,31,5.30
2014,03,17,00,32,5.30
2014,03,17,00,33,5.30
2014,03,17,00,34,5.30
2014,03,17,00,35,5.30
2014,03,17,00,36,5.30
2014,03,17,00,37,5.30
2014,03,17,00,38,5.30
2014,03,17,00,39,5.30
2014,03,17,00,40,5.30
2014,03,17,00,41,5.30
2014,03,17,00,42,5.30
2014,03,17,00,43,5.20
2014,03,17,00,44,5.20
2014,03,17,00,45,5.10
2014,03,17,00,46,5.10
2014,03,17,00,47,5.10
2014,03,17,00,48,5.10
2014,03,17,00,49,5.10
2014,03,17,00,50,5.00
2014,03,17,00,51,4.90
2014,03,17,00,52,4.90
2014,03,17,00,53,4.90
2014,03,17,00,54,4.90
2014,03,17,00,55,4.90
2014,03,17,00,56,4.90
2014,03,17,00,57,4.90
2014,03,17,00,58,4.90
2014,03,17,00,59,4.90
2014,03,17,01,00,4.90
2014,03,17,01,01,4.90
2014,03,17,01,02,4.90
2014,03,17,01,03,4.90
2014,03,17,01,04,4.90
2014,03,17,01,05,4.90
2014,03,17,01,06,4.90
2014,03,17,01,07,4.90
2014,03,17,01,08,4.90
2014,03,17,01,09,4.90
2014,03,17,01,10,4.90
2014,03,17,01,11,5.10
2014,03,17,01,12,5.10
2014,03,17,01,13,5.10
2014,03,17,01,14,5.10
2014,03,17,01,15,5.10
2014,03,17,01,16,5.10
2014,03,17,01,17,5.10
2014,03,17,01,18,5.10
2014,03,17,01,19,5.00
2014,03,17,01,20,4.90
2014,03,17,01,21,4.90
2014,03,17,01,22,4.90
2014,03,17,01,23,4.90
2014,03,17,01,24,4.90
2014,03,17,01,25,4.90
2014,03,17,01,26,4.90
2014,03,17,01,27,4.90
2014,03,17,01,28,4.90
2014,03,17,01,29,4.90
2014,03,17,01,30,4.90
2014,03,17,01,31,4.80
2014,03,17,01,32,4.80
2014,03,17,01,33,4.80
2014,03,17,01,34,4.80
2014,03,17,01,35,4.80
2014,03,17,01,36,4.80
2014,03,17,01,37,4.80
2014,03,17,01,38,4.80
2014,03,17,01,39,4.70
2014,03,17,01,40,4.70
2014,03,17,01,41,4.60
2014,03,17,01,42,4.60
2014,03,17,01,43,4.60
2014,03,17,01,44,4.60
2014,03,17,01,45,4.60
2014,03,17,01,46,4.60
2014,03,17,01,47,4.60
2014,03,17,01,48,4.60
2014,03,17,01,49,4.60
2014,03,17,01,50,4.60
2014,03,17,01,51,4.50
2014,03,17,01,52,4.50
2014,03,17,01,53,4.50
2014,03,17,01,54,4.40
2014,03,17,01,55,4.40
2014,03,17,01,56,4.40
2014,03,17,01,57,4.30
2014,03,17,01,58,4.30
2014,03,17,01,59,4.20
2014,03,17,02,00,4.20
2014,03,17,02,01,4.20
2014,03,17,02,02,4.20
2014,03,17,02,03,4.20
2014,03,17,02,04,4.20
2014,03,17,02,05,4.20
2014,03,17,02,06,4.20
2014,03,17,02,07,4.20
2014,03,17,02,08,4.20
2014,03,17,02,09,4.20
2014,03,17,02,10,4.20
2014,03,17,02,11,4.20
2014,03,17,02,12,4.30
2014,03,17,02,13,4.30
2014,03,17,02,14,4.30
2014,03,17,02,15,4.30
2014,03,17,02,16,4.30
2014,03,17,02,17,4.30
2014,03,17,02,18,4.30
2014,03,17,02,19,4.30
2014,03,17,02,20,4.30
2014,03,17,02,21,4.20
2014,03,17,02,22,4.20
2014,03,17,02,23,4.20
2014,03,17,02,24,4.20
2014,03,17,02,25,4.20
2014,03,17,02,26,4.10
2014,03,17,02,27,4.10
2014,03,17,02,28,4.00
2014,03,17,02,29,4.00
2014,03,17,02,30,4.00
2014,03,17,02,31,3.90
2014,03,17,02,32,3.80
2014,03,17,02,33,3.80
2014,03,17,02,34,3.80
2014,03,17,02,35,3.80
2014,03,17,02,36,3.70
2014,03,17,02,37,3.70
2014,03,17,02,38,3.60
2014,03,17,02,39,3.60
2014,03,17,02,40,3.60
2014,03,17,02,41,3.50
2014,03,17,02,42,3.50
2014,03,17,02,43,3.50
2014,03,17,02,44,3.40
2014,03,17,02,45,3.40
2014,03,17,02,46,3.50
2014,03,17,02,47,3.50
2014,03,17,02,48,3.50
2014,03,17,02,49,3.60
2014,03,17,02,50,3.60
2014,03,17,02,51,3.70
2014,03,17,02,52,3.70
2014,03,17,02,53,3.70
2014,03,17,02,54,3.70
2014,03,17,02,55,3.80
2014,03,17,02,56,3.80
2014,03,17,02,57,3.80
2014,03,17,02,58,3.80
2014,03,17,02,59,3.80
2014,03,17,03,00,3.80
2014,03,17,03,01,3.80
2014,03,17,03,02,3.70
2014,03,17,03,03,3.60
2014,03,17,03,04,3.60
2014,03,17,03,05,3.50
2014,03,17,03,06,3.50
2014,03,17,03,07,3.40
2014,03,17,03,08,3.40
2014,03,17,03,09,3.30
2014,03,17,03,10,3.30
2014,03,17,03,11,3.30
2014,03,17,03,12,3.20
2014,03,17,03,13,3.20
2014,03,17,03,14,3.20
2014,03,17,03,15,3.10
2014,03,17,03,16,3.10
2014,03,17,03,17,3.10
2014,03,17,03,18,3.10
2014,03,17,03,19,3.10
2014,03,17,03,20,3.10
2014,03,17,03,21,3.10
2014,03,17,03,22,3.10
2014,03,17,03,23,3.10
2014,03,17,03,24,3.10
2014,03,17,03,25,3.00
2014,03,17,03,26,2.90
2014,03,17,03,27,2.90
2014,03,17,03,28,2.90
2014,03,17,03,29,2.90
2014,03,17,03,30,2.80
2014,03,17,03,31,2.80
2014,03,17,03,32,2.80
2014,03,17,03,33,2.80
2014,03,17,03,34,2.80
2014,03,17,03,35,2.70
2014,03,17,03,36,2.70
2014,03,17,03,37,2.70
2014,03,17,03,38,2.70
2014,03,17,03,39,2.70
2014,03,17,03,40,2.70
2014,03,17,03,41,2.70
2014,03,17,03,42,2.70
2014,03,17,03,43,2.70
2014,03,17,03,44,2.70
2014,03,17,03,45,2.70
2014,03,17,03,46,2.70
2014,03,17,03,47,2.60
2014,03,17,03,48,2.60
2014,03,17,03,49,2.60
2014,03,17,03,50,2.60
2014,03,17,03,51,2.60
2014,03,17,03,52,2.60
2014,03,17,03,53,2.60
2014,03,17,03,54,2.60
2014,03,17,03,55,2.60
2014,03,17,03,56,2.60
2014,03,17,03,57,2.60
2014,03,17,03,58,2.60
2014,03,17,03,59,2.60
2014,03,17,04,00,2.60
2014,03,17,04,01,2.60
2014,03,17,04,02,2.70
2014,03,17,04,03,2.70
2014,03,17,04,04,2.70
2014,03,17,04,05,2.70
2014,03,17,04,06,2.70
2014,03,17,04,07,2.70
2014,03,17,04,08,2.70
2014,03,17,04,09,2.70
2014,03,17,04,10,2.80
2014,03,17,04,11,2.80
2014,03,17,04,12,2.80
2014,03,17,04,13,2.80
2014,03,17,04,14,2.70
2014,03,17,04,15,2.70
2014,03,17,04,16,2.70
2014,03,17,04,17,2.70
2014,03,17,04,18,2.70
2014,03,17,04,19,2.70
2014,03,17,04,20,2.70
2014,03,17,04,21,2.70
2014,03,17,04,22,2.70
2014,03,17,04,23,2.70
2014,03,17,04,24,2.70
2014,03,17,04,25,2.60
2014,03,17,04,26,2.60
2014,03,17,04,27,2.60
2014,03,17,04,28,2.60
2014,03,17,04,29,2.60
2014,03,17,04,30,2.60
2014,03,17,04,31,2.60
2014,03,17,04,32,2.60
2014,03,17,04,33,2.60
2014,03,17,04,34,2.60
2014,03,17,04,35,2.60
2014,03,17,04,36,2.60
2014,03,17,04,37,2.60
2014,03,17,04,38,2.60
2014,03,17,04,39,2.60
2014,03,17,04,40,2.60
2014,03,17,04,41,2.60
2014,03,17,04,42,2.60
2014,03,17,04,43,2.60
2014,03,17,04,44,2.60
2014,03,17,04,45,2.60
2014,03,17,04,46,2.60
2014,03,17,04,47,2.60
2014,03,17,04,48,2.60
2014,03,17,04,49,2.60
2014,03,17,04,50,2.60
2014,03,17,04,51,2.60
2014,03,17,04,52,2.60
2014,03,17,04,53,2.60
2014,03,17,04,54,2.60
2014,03,17,04,55,2.60
2014,03,17,04,56,2.60
2014,03,17,04,57,2.60
2014,03,17,04,58,2.60
2014,03,17,04,59,2.60
2014,03,17,05,00,2.60
2014,03,17,05,01,2.60
2014,03,17,05,02,2.60
2014,03,17,05,03,2.60
2014,03,17,05,04,2.60
2014,03,17,05,05,2.60
2014,03,17,05,06,2.60
2014,03,17,05,07,2.60
2014,03,17,05,08,2.60
2014,03,17,05,09,2.60
2014,03,17,05,10,2.60
2014,03,17,05,11,2.60
2014,03,17,05,12,2.60
2014,03,17,05,13,2.60
2014,03,17,05,14,2.60
2014,03,17,05,15,2.60
2014,03,17,05,16,2.60
2014,03,17,05,17,2.60
2014,03,17,05,18,2.60
2014,03,17,05,19,2.60
2014,03,17,05,20,2.60
2014,03,17,05,21,2.60
2014,03,17,05,22,2.60
2014,03,17,05,23,2.60
2014,03,17,05,24,2.60
2014,03,17,05,25,2.60
2014,03,17,05,26,2.50
2014,03,17,05,27,2.50
2014,03,17,05,28,2.50
2014,03,17,05,29,2.50
2014,03,17,05,30,2.50
2014,03,17,05,31,2.50
2014,03,17,05,32,2.50
2014,03,17,05,33,2.50
2014,03,17,05,34,2.40
2014,03,17,05,35,2.40
2014,03,17,05,36,2.40
2014,03,17,05,37,2.40
2014,03,17,05,38,2.30
2014,03,17,05,39,2.30
2014,03,17,05,40,2.30
2014,03,17,05,41,2.30
2014,03,17,05,42,2.20
2014,03,17,05,43,2.20
2014,03,17,05,44,2.20
2014,03,17,05,45,2.20
2014,03,17,05,46,2.20
2014,03,17,05,47,2.20
2014,03,17,05,48,2.10
2014,03,17,05,49,2.10
2014,03,17,05,50,2.10
2014,03,17,05,51,2.00
2014,03,17,05,52,2.00
2014,03,17,05,53,2.00
2014,03,17,05,54,2.00
2014,03,17,05,55,2.00
2014,03,17,05,56,2.00
2014,03,17,05,57,1.90
2014,03,17,05,58,1.90
2014,03,17,05,59,1.90
2014,03,17,06,00,1.80
2014,03,17,06,01,1.80
2014,03,17,06,02,1.80
2014,03,17,06,03,1.80
2014,03,17,06,04,1.80
2014,03,17,06,05,1.80
2014,03,17,06,06,1.70
2014,03,17,06,07,1.70
2014,03,17,06,08,1.70
2014,03,17,06,09,1.70
2014,03,17,06,10,1.70
2014,03,17,06,11,1.70
2014,03,17,06,12,1.70
2014,03,17,06,13,1.70
2014,03,17,06,14,1.70
2014,03,17,06,15,1.60
2014,03,17,06,16,1.60
2014,03,17,06,17,1.60
2014,03,17,06,18,1.60
2014,03,17,06,19,1.60
2014,03,17,06,20,1.60
2014,03,17,06,21,1.60
2014,03,17,06,22,1.50
2014,03,17,06,23,1.50
2014,03,17,06,24,1.50
2014,03,17,06,25,1.50
2014,03,17,06,26,1.40
2014,03,17,06,27,1.40
2014,03,17,06,28,1.40
2014,03,17,06,29,1.40
2014,03,17,06,30,1.30
2014,03,17,06,31,1.30
2014,03,17,06,32,1.30
2014,03,17,06,33,1.30
2014,03,17,06,34,1.30
2014,03,17,06,35,1.30
2014,03,17,06,36,1.30
2014,03,17,06,37,1.30
2014,03,17,06,38,1.30
2014,03,17,06,39,1.30
2014,03,17,06,40,1.30
2014,03,17,06,41,1.40
2014,03,17,06,42,1.40
2014,03,17,06,43,1.50
2014,03,17,06,44,1.60
2014,03,17,06,45,1.80
2014,03,17,06,46,1.80
2014,03,17,06,47,1.90
2014,03,17,06,48,2.00
2014,03,17,06,49,2.10
2014,03,17,06,50,2.20
2014,03,17,06,51,2.20
2014,03,17,06,52,2.20
2014,03,17,06,53,2.20
2014,03,17,06,54,2.20
2014,03,17,06,55,2.20
2014,03,17,06,56,2.20
2014,03,17,06,57,2.20
2014,03,17,06,58,2.20
2014,03,17,06,59,2.20
2014,03,17,07,00,2.20
2014,03,17,07,01,2.20
2014,03,17,07,02,2.20
2014,03,17,07,03,2.20
2014,03,17,07,04,2.20
2014,03,17,07,05,2.20
2014,03,17,07,06,2.10
2014,03,17,07,07,2.10
2014,03,17,07,08,2.00
2014,03,17,07,09,2.00
2014,03,17,07,10,1.90
2014,03,17,07,11,1.80
2014,03,17,07,12,1.80
2014,03,17,07,13,1.80
2014,03,17,07,14,1.80
2014,03,17,07,15,1.70
2014,03,17,07,16,1.70
2014,03,17,07,17,1.60
2014,03,17,07,18,1.60
2014,03,17,07,19,1.60
2014,03,17,07,20,1.50
2014,03,17,07,21,1.50
2014,03,17,07,22,1.40
2014,03,17,07,23,1.40
2014,03,17,07,24,1.40
2014,03,17,07,25,1.40
2014,03,17,07,26,1.40
2014,03,17,07,27,1.40
2014,03,17,07,28,1.40
2014,03,17,07,29,1.50
2014,03,17,07,30,1.50
2014,03,17,07,31,1.50
2014,03,17,07,32,1.50
2014,03,17,07,33,1.40
2014,03,17,07,34,1.40
2014,03,17,07,35,1.40
2014,03,17,07,36,1.40
2014,03,17,07,37,1.30
2014,03,17,07,38,1.30
2014,03,17,07,39,1.30
2014,03,17,07,40,1.30
2014,03,17,07,41,1.30
2014,03,17,07,42,1.30
2014,03,17,07,43,1.30
2014,03,17,07,44,1.30
2014,03,17,07,45,1.30
2014,03,17,07,46,1.30
2014,03,17,07,47,1.30
2014,03,17,07,48,1.30
2014,03,17,07,49,1.30
2014,03,17,07,50,1.40
2014,03,17,07,51,1.40
2014,03,17,07,52,1.40
2014,03,17,07,53,1.50
2014,03,17,07,54,1.50
2014,03,17,07,55,1.50
2014,03,17,07,56,1.60
2014,03,17,07,57,1.70
2014,03,17,07,58,1.70
2014,03,17,07,59,1.80
2014,03,17,08,00,1.80
2014,03,17,08,01,1.80
2014,03,17,08,02,1.90
2014,03,17,08,03,1.90
2014,03,17,08,04,2.00
2014,03,17,08,05,2.00
2014,03,17,08,06,2.10
2014,03,17,08,07,2.10
2014,03,17,08,08,2.20
2014,03,17,08,09,2.20
2014,03,17,08,10,2.20
2014,03,17,08,11,2.20
2014,03,17,08,12,2.20
2014,03,17,08,13,2.30
2014,03,17,08,14,2.30
2014,03,17,08,15,2.40
2014,03,17,08,16,2.50
2014,03,17,08,17,2.50
2014,03,17,08,18,2.50
2014,03,17,08,19,2.60
2014,03,17,08,20,2.60
2014,03,17,08,21,2.70
2014,03,17,08,22,2.70
2014,03,17,08,23,2.70
2014,03,17,08,24,2.70
2014,03,17,08,25,2.70
2014,03,17,08,26,2.70
2014,03,17,08,27,2.80
2014,03,17,08,28,2.80
2014,03,17,08,29,2.90
2014,03,17,08,30,2.90
2014,03,17,08,31,2.90
2014,03,17,08,32,3.00
2014,03,17,08,33,3.10
2014,03,17,08,34,3.10
2014,03,17,08,35,3.20
2014,03,17,08,36,3.20
2014,03,17,08,37,3.30
2014,03,17,08,38,3.30
2014,03,17,08,39,3.40
2014,03,17,08,40,3.50
2014,03,17,08,41,3.60
2014,03,17,08,42,3.70
2014,03,17,08,43,3.80
2014,03,17,08,44,3.80
2014,03,17,08,45,3.90
2014,03,17,08,46,4.00
2014,03,17,08,47,4.00
2014,03,17,08,48,4.10
2014,03,17,08,49,4.20
2014,03,17,08,50,4.30
2014,03,17,08,51,4.40
2014,03,17,08,52,4.40
2014,03,17,08,53,4.50
2014,03,17,08,54,4.60
2014,03,17,08,55,4.60
2014,03,17,08,56,4.70
2014,03,17,08,57,4.80
2014,03,17,08,58,4.90
2014,03,17,08,59,4.90
2014,03,17,09,00,5.00
2014,03,17,09,01,5.10
2014,03,17,09,02,5.10
2014,03,17,09,03,5.10
2014,03,17,09,04,5.20
2014,03,17,09,05,5.30
2014,03,17,09,06,5.30
2014,03,17,09,07,5.30
2014,03,17,09,08,5.40
2014,03,17,09,09,5.40
2014,03,17,09,10,5.40
2014,03,17,09,11,5.50
2014,03,17,09,12,5.50
2014,03,17,09,13,5.60
2014,03,17,09,14,5.60
2014,03,17,09,15,5.70
2014,03,17,09,16,5.70
2014,03,17,09,17,5.70
2014,03,17,09,18,5.70
2014,03,17,09,19,5.70
2014,03,17,09,20,5.70
2014,03,17,09,21,5.80
2014,03,17,09,22,5.80
2014,03,17,09,23,5.80
2014,03,17,09,24,5.90
2014,03,17,09,25,5.90
2014,03,17,09,26,6.00
2014,03,17,09,27,6.00
2014,03,17,09,28,6.00
2014,03,17,09,29,6.10
2014,03,17,09,30,6.10
2014,03,17,09,31,6.10
2014,03,17,09,32,6.10
2014,03,17,09,33,6.10
2014,03,17,09,34,6.20
2014,03,17,09,35,6.20
2014,03,17,09,36,6.20
2014,03,17,09,37,6.20
2014,03,17,09,38,6.20
2014,03,17,09,39,6.20
2014,03,17,09,40,6.20
2014,03,17,09,41,6.20
2014,03,17,09,42,6.20
2014,03,17,09,43,6.20
2014,03,17,09,44,6.30
2014,03,17,09,45,6.30
2014,03,17,09,46,6.30
2014,03,17,09,47,6.40
2014,03,17,09,48,6.40
2014,03,17,09,49,6.40
2014,03,17,09,50,6.40
2014,03,17,09,51,6.40
2014,03,17,09,52,6.50
2014,03,17,09,53,6.60
2014,03,17,09,54,6.60
2014,03,17,09,55,6.60
2014,03,17,09,56,6.60
2014,03,17,09,57,6.70
2014,03,17,09,58,6.70
2014,03,17,09,59,6.70
2014,03,17,10,00,6.80
2014,03,17,10,01,6.80
2014,03,17,10,02,6.80
2014,03,17,10,03,6.80
2014,03,17,10,04,6.80
2014,03,17,10,05,6.80
2014,03,17,10,06,6.80
2014,03,17,10,07,6.80
2014,03,17,10,08,6.80
2014,03,17,10,09,6.90
2014,03,17,10,10,6.90
2014,03,17,10,11,7.00
2014,03,17,10,12,7.00
2014,03,17,10,13,7.00
2014,03,17,10,14,7.00
2014,03,17,10,15,7.00
2014,03,17,10,16,7.00
2014,03,17,10,17,7.10
2014,03,17,10,18,7.10
2014,03,17,10,19,7.20
2014,03,17,10,20,7.20
2014,03,17,10,21,7.20
2014,03,17,10,22,7.30
2014,03,17,10,23,7.30
2014,03,17,10,24,7.30
2014,03,17,10,25,7.30
2014,03,17,10,26,7.30
2014,03,17,10,27,7.30
2014,03,17,10,28,7.30
2014,03,17,10,29,7.30
2014,03,17,10,30,7.30
2014,03,17,10,31,7.30
2014,03,17,10,32,7.30
2014,03,17,10,33,7.30
2014,03,17,10,34,7.30
2014,03,17,10,35,7.30
2014,03,17,10,36,7.30
2014,03,17,10,37,7.30
2014,03,17,10,38,7.30
2014,03,17,10,39,7.40
2014,03,17,10,40,7.40
2014,03,17,10,41,7.40
2014,03,17,10,42,7.40
2014,03,17,10,43,7.40
2014,03,17,10,44,7.40
2014,03,17,10,45,7.40
2014,03,17,10,46,7.40
2014,03,17,10,47,7.40
2014,03,17,10,48,7.40
2014,03,17,10,49,7.50
2014,03,17,10,50,7.50
2014,03,17,10,51,7.60
2014,03,17,10,52,7.60
2014,03,17,10,53,7.60
2014,03,17,10,54,7.60
2014,03,17,10,55,7.60
2014,03,17,10,56,7.70
2014,03,17,10,57,7.70
2014,03,17,10,58,7.80
2014,03,17,10,59,7.80
2014,03,17,11,00,7.90
2014,03,17,11,01,7.90
2014,03,17,11,02,7.90
2014,03,17,11,03,7.90
2014,03,17,11,04,8.00
2014,03,17,11,05,8.00
2014,03,17,11,06,8.10
2014,03,17,11,07,8.10
2014,03,17,11,08,8.10
2014,03,17,11,09,8.10
2014,03,17,11,10,8.20
2014,03,17,11,11,8.20
2014,03,17,11,12,8.20
2014,03,17,11,13,8.10
2014,03,17,11,14,8.20
2014,03,17,11,15,8.20
2014,03,17,11,16,8.20
2014,03,17,11,17,8.20
2014,03,17,11,18,8.20
2014,03,17,11,19,8.20
2014,03,17,11,20,8.20
2014,03,17,11,21,8.30
2014,03,17,11,22,8.30
2014,03,17,11,23,8.30
2014,03,17,11,24,8.30
2014,03,17,11,25,8.30
2014,03,17,11,26,8.30
2014,03,17,11,27,8.30
2014,03,17,11,28,8.30
2014,03,17,11,29,8.30
2014,03,17,11,30,8.30
2014,03,17,11,31,8.30
2014,03,17,11,32,8.30
2014,03,17,11,33,8.40
2014,03,17,11,34,8.40
2014,03,17,11,35,8.50
2014,03,17,11,36,8.50
2014,03,17,11,37,8.60
2014,03,17,11,38,8.70
2014,03,17,11,39,8.70
2014,03,17,11,40,8.70
2014,03,17,11,41,8.80
2014,03,17,11,42,8.90
2014,03,17,11,43,8.90
2014,03,17,11,44,9.00
2014,03,17,11,45,9.00
2014,03,17,11,46,9.00
2014,03,17,11,47,9.00
2014,03,17,11,48,9.10
2014,03,17,11,49,9.10
2014,03,17,11,50,9.20
2014,03,17,11,51,9.20
2014,03,17,11,52,9.30
2014,03,17,11,53,9.40
2014,03,17,11,54,9.40
2014,03,17,11,55,9.50
2014,03,17,11,56,9.50
2014,03,17,11,57,9.60
2014,03,17,11,58,9.60
2014,03,17,11,59,9.70
2014,03,17,12,00,9.70
2014,03,17,12,01,9.70
2014,03,17,12,02,9.70
2014,03,17,12,03,9.70
2014,03,17,12,04,9.70
2014,03,17,12,05,9.70
2014,03,17,12,06,9.80
2014,03,17,12,07,9.80
2014,03,17,12,08,9.90
2014,03,17,12,09,10.00
2014,03,17,12,10,10.10
2014,03,17,12,11,10.10
2014,03,17,12,12,10.10
2014,03,17,12,13,10.20
2014,03,17,12,14,10.30
2014,03,17,12,15,10.30
2014,03,17,12,16,10.30
2014,03,17,12,17,10.30
2014,03,17,12,18,10.30
2014,03,17,12,19,10.30
2014,03,17,12,20,10.30
2014,03,17,12,21,10.20
2014,03,17,12,22,10.20
2014,03,17,12,23,10.20
2014,03,17,12,24,10.30
2014,03,17,12,25,10.30
2014,03,17,12,26,10.30
2014,03,17,12,27,10.20
2014,03,17,12,28,10.20
2014,03,17,12,29,10.20
2014,03,17,12,30,10.20
2014,03,17,12,31,10.30
2014,03,17,12,32,10.30
2014,03,17,12,33,10.40
2014,03,17,12,34,10.40
2014,03,17,12,35,10.40
2014,03,17,12,36,10.30
2014,03,17,12,37,10.30
2014,03,17,12,38,10.30
2014,03,17,12,39,10.30
2014,03,17,12,40,10.40
2014,03,17,12,41,10.40
2014,03,17,12,42,10.30
2014,03,17,12,43,10.30
2014,03,17,12,44,10.30
2014,03,17,12,45,10.30
2014,03,17,12,46,10.20
2014,03,17,12,47,10.20
2014,03,17,12,48,10.10
2014,03,17,12,49,10.10
2014,03,17,12,50,10.20
2014,03,17,12,51,10.20
2014,03,17,12,52,10.20
2014,03,17,12,53,10.20
2014,03,17,12,54,10.30
2014,03,17,12,55,10.30
2014,03,17,12,56,10.30
2014,03,17,12,57,10.20
2014,03,17,12,58,10.30
2014,03,17,12,59,10.30
2014,03,17,13,00,10.30
2014,03,17,13,01,10.30
2014,03,17,13,02,10.30
2014,03,17,13,03,10.30
2014,03,17,13,04,10.30
2014,03,17,13,05,10.30
2014,03,17,13,06,10.40
2014,03,17,13,07,10.40
2014,03,17,13,08,10.40
2014,03,17,13,09,10.40
2014,03,17,13,10,10.40
2014,03,17,13,11,10.50
2014,03,17,13,12,10.60
2014,03,17,13,13,10.60
2014,03,17,13,14,10.60
2014,03,17,13,15,10.60
2014,03,17,13,16,10.60
2014,03,17,13,17,10.50
2014,03,17,13,18,10.40
2014,03,17,13,19,10.40
2014,03,17,13,20,10.30
2014,03,17,13,21,10.20
2014,03,17,13,22,10.10
2014,03,17,13,23,10.00
2014,03,17,13,24,9.90
2014,03,17,13,25,9.90
2014,03,17,13,26,9.90
2014,03,17,13,27,9.90
2014,03,17,13,28,9.90
2014,03,17,13,29,9.90
2014,03,17,13,30,10.00
2014,03,17,13,31,10.10
2014,03,17,13,32,10.10
2014,03,17,13,33,10.20
2014,03,17,13,34,10.30
2014,03,17,13,35,10.40
2014,03,17,13,36,10.40
2014,03,17,13,37,10.40
2014,03,17,13,38,10.40
2014,03,17,13,39,10.40
2014,03,17,13,40,10.60
2014,03,17,13,41,10.60
2014,03,17,13,42,10.60
2014,03,17,13,43,10.60
2014,03,17,13,44,10.60
2014,03,17,13,45,10.50
2014,03,17,13,46,10.40
2014,03,17,13,47,10.20
2014,03,17,13,48,10.20
2014,03,17,13,49,10.10
2014,03,17,13,50,10.10
2014,03,17,13,51,9.90
2014,03,17,13,52,9.90
2014,03,17,13,53,9.90
2014,03,17,13,54,9.90
2014,03,17,13,55,9.80
2014,03,17,13,56,9.80
2014,03,17,13,57,9.80
2014,03,17,13,58,9.70
2014,03,17,13,59,9.70
2014,03,17,14,00,9.70
2014,03,17,14,01,9.70
2014,03,17,14,02,9.70
2014,03,17,14,03,9.70
2014,03,17,14,04,9.70
2014,03,17,14,05,9.70
2014,03,17,14,06,9.70
2014,03,17,14,07,9.70
2014,03,17,14,08,9.70
2014,03,17,14,09,9.70
2014,03,17,14,10,9.70
2014,03,17,14,11,9.60
2014,03,17,14,12,9.60
2014,03,17,14,13,9.60
2014,03,17,14,14,9.60
2014,03,17,14,15,9.60
2014,03,17,14,16,9.70
2014,03,17,14,17,9.70
2014,03,17,14,18,9.80
2014,03,17,14,19,9.90
2014,03,17,14,20,9.90
2014,03,17,14,21,10.00
2014,03,17,14,22,10.10
2014,03,17,14,23,10.10
2014,03,17,14,24,10.00
2014,03,17,14,25,9.90
2014,03,17,14,26,9.90
2014,03,17,14,27,9.90
2014,03,17,14,28,9.80
2014,03,17,14,29,9.80
2014,03,17,14,30,9.80
2014,03,17,14,31,9.80
2014,03,17,14,32,9.70
2014,03,17,14,33,9.70
2014,03,17,14,34,9.70
2014,03,17,14,35,9.80
2014,03,17,14,36,9.80
2014,03,17,14,37,9.90
2014,03,17,14,38,9.90
2014,03,17,14,39,9.90
2014,03,17,14,40,9.90
2014,03,17,14,41,9.90
2014,03,17,14,42,9.90
2014,03,17,14,43,9.90
2014,03,17,14,44,10.00
2014,03,17,14,45,10.10
2014,03,17,14,46,10.10
2014,03,17,14,47,10.20
2014,03,17,14,48,10.20
2014,03,17,14,49,10.20
2014,03,17,14,50,10.30
2014,03,17,14,51,10.30
2014,03,17,14,52,10.30
2014,03,17,14,53,10.30
2014,03,17,14,54,10.30
2014,03,17,14,55,10.20
2014,03,17,14,56,10.10
2014,03,17,14,57,10.00
2014,03,17,14,58,9.90
2014,03,17,14,59,9.80
2014,03,17,15,00,9.70
2014,03,17,15,01,9.70
2014,03,17,15,02,9.70
2014,03,17,15,03,9.70
2014,03,17,15,04,9.70
2014,03,17,15,05,9.70
2014,03,17,15,06,9.60
2014,03,17,15,07,9.60
2014,03,17,15,08,9.60
2014,03,17,15,09,9.60
2014,03,17,15,10,9.50
2014,03,17,15,11,9.40
2014,03,17,15,12,9.40
2014,03,17,15,13,9.30
2014,03,17,15,14,9.30
2014,03,17,15,15,9.30
2014,03,17,15,16,9.20
2014,03,17,15,17,9.30
2014,03,17,15,18,9.30
2014,03,17,15,19,9.30
2014,03,17,15,20,9.30
2014,03,17,15,21,9.40
2014,03,17,15,22,9.40
2014,03,17,15,23,9.40
2014,03,17,15,24,9.50
2014,03,17,15,25,9.60
2014,03,17,15,26,9.60
2014,03,17,15,27,9.60
2014,03,17,15,28,9.60
2014,03,17,15,29,9.50
2014,03,17,15,30,9.50
2014,03,17,15,31,9.50
2014,03,17,15,32,9.60
2014,03,17,15,33,9.60
2014,03,17,15,34,9.60
2014,03,17,15,35,9.60
2014,03,17,15,36,9.60
2014,03,17,15,37,9.70
2014,03,17,15,38,9.70
2014,03,17,15,39,9.70
2014,03,17,15,40,9.60
2014,03,17,15,41,9.60
2014,03,17,15,42,9.60
2014,03,17,15,43,9.60
2014,03,17,15,44,9.60
2014,03,17,15,45,9.50
2014,03,17,15,46,9.50
2014,03,17,15,47,9.50
2014,03,17,15,48,9.50
2014,03,17,15,49,9.50
2014,03,17,15,50,9.50
2014,03,17,15,51,9.50
2014,03,17,15,52,9.50
2014,03,17,15,53,9.50
2014,03,17,15,54,9.50
2014,03,17,15,55,9.60
2014,03,17,15,56,9.70
2014,03,17,15,57,9.70
2014,03,17,15,58,9.80
2014,03,17,15,59,9.90
2014,03,17,16,00,9.90
2014,03,17,16,01,9.80
2014,03,17,16,02,9.80
2014,03,17,16,03,9.70
2014,03,17,16,04,9.70
2014,03,17,16,05,9.70
2014,03,17,16,06,9.70
2014,03,17,16,07,9.70
2014,03,17,16,08,9.70
2014,03,17,16,09,9.70
2014,03,17,16,10,9.70
2014,03,17,16,11,9.70
2014,03,17,16,12,9.70
2014,03,17,16,13,9.70
2014,03,17,16,14,9.70
2014,03,17,16,15,9.70
2014,03,17,16,16,9.80
2014,03,17,16,17,9.80
2014,03,17,16,18,9.90
2014,03,17,16,19,9.90
2014,03,17,16,20,9.80
2014,03,17,16,21,9.70
2014,03,17,16,22,9.60
2014,03,17,16,23,9.60
2014,03,17,16,24,9.60
2014,03,17,16,25,9.50
2014,03,17,16,26,9.50
2014,03,17,16,27,9.50
2014,03,17,16,28,9.40
2014,03,17,16,29,9.40
2014,03,17,16,30,9.40
2014,03,17,16,31,9.40
2014,03,17,16,32,9.40
2014,03,17,16,33,9.40
2014,03,17,16,34,9.40
2014,03,17,16,35,9.40
2014,03,17,16,36,9.40
2014,03,17,16,37,9.40
2014,03,17,16,38,9.30
2014,03,17,16,39,9.30
2014,03,17,16,40,9.30
2014,03,17,16,41,9.30
2014,03,17,16,42,9.30
2014,03,17,16,43,9.30
2014,03,17,16,44,9.30
2014,03,17,16,45,9.30
2014,03,17,16,46,9.30
2014,03,17,16,47,9.40
2014,03,17,16,48,9.40
2014,03,17,16,49,9.50
2014,03,17,16,50,9.50
2014,03,17,16,51,9.60
2014,03,17,16,52,9.60
2014,03,17,16,53,9.60
2014,03,17,16,54,9.60
2014,03,17,16,55,9.60
2014,03,17,16,56,9.60
2014,03,17,16,57,9.50
2014,03,17,16,58,9.50
2014,03,17,16,59,9.40
2014,03,17,17,00,9.40
2014,03,17,17,01,9.40
2014,03,17,17,02,9.30
2014,03,17,17,03,9.30
2014,03,17,17,04,9.30
2014,03,17,17,05,9.30
2014,03,17,17,06,9.30
2014,03,17,17,07,9.30
2014,03,17,17,08,9.30
2014,03,17,17,09,9.20
2014,03,17,17,10,9.20
2014,03,17,17,11,9.20
2014,03,17,17,12,9.20
2014,03,17,17,13,9.20
2014,03,17,17,14,9.20
2014,03,17,17,15,9.20
2014,03,17,17,16,9.20
2014,03,17,17,17,9.20
2014,03,17,17,18,9.20
2014,03,17,17,19,9.30
2014,03,17,17,20,9.30
2014,03,17,17,21,9.30
2014,03,17,17,22,9.30
2014,03,17,17,23,9.40
2014,03,17,17,24,9.40
2014,03,17,17,25,9.40
2014,03,17,17,26,9.40
2014,03,17,17,27,9.50
2014,03,17,17,28,9.50
2014,03,17,17,29,9.50
2014,03,17,17,30,9.60
2014,03,17,17,31,9.60
2014,03,17,17,32,9.60
2014,03,17,17,33,9.70
2014,03,17,17,34,9.70
2014,03,17,17,35,9.70
2014,03,17,17,36,9.70
2014,03,17,17,37,9.70
2014,03,17,17,38,9.70
2014,03,17,17,39,9.70
2014,03,17,17,40,9.70
2014,03,17,17,41,9.60
2014,03,17,17,42,9.60
2014,03,17,17,43,9.60
2014,03,17,17,44,9.50
2014,03,17,17,45,9.50
2014,03,17,17,46,9.40
2014,03,17,17,47,9.40
2014,03,17,17,48,9.40
2014,03,17,17,49,9.30
2014,03,17,17,50,9.30
2014,03,17,17,51,9.30
2014,03,17,17,52,9.20
2014,03,17,17,53,9.20
2014,03,17,17,54,9.20
2014,03,17,17,55,9.20
2014,03,17,17,56,9.20
2014,03,17,17,57,9.20
2014,03,17,17,58,9.20
2014,03,17,17,59,9.20
2014,03,17,18,00,9.20
2014,03,17,18,01,9.20